Vertical_Velocity
-2 -2 1 -1 -1 -1 -5 -1 -3 -3 -4 -4 0 -2 1 2 3 9 -4 -3 -4 -1
-3 -4 -4 -1 -2 -2 -3 -3 -7 -5 -4 -4 3 2 3 1 1 2 8 13 14 9
-3 -3 -3 -4 -3 -1 -1 -2 -3 -1 -1 4 1 2 -7 -1 3 2 -2 -1 -3 -3
2 -1 0 -1 -3 -0 -1 -5 -2 -1 2 -1 -4 4 7 6 1 -5 -3 -7 -7 -3
0 -0 -1 -4 1 -7 2 -4 -1 -2 -2 1 6 1 -2 1 3 3 2 -0 -1 -1
-4 -3 -0 0 -3 -2 2 3 0 2 2 4 2 5 4 1 -0 1 1 1 -2 -2
-4 -2 -3 -2 0 -3 -4 3 3 4 7 5 4 2 -0 0 -3 1 2 2 0 -2
-1 -4 -7 -4 -1 -4 -2 3 1 0 2 -1 -0 -5 2 3 1 -3 -1 1 -0 -2
-2 0 -4 -2 -3 -2 1 1 -0 1 -1 -2 0 -5 -3 -1 3 2 0 -0 -0 -0
-6 -2 -1 -2 -3 -1 1 -0 -0 -1 -2 -1 3 -6 -1 -1 1 -0 2 1 0 -3
-0 2 -1 -3 -1 -2 -1 -1 -2 -4 -3 -3 1 -4 0 -1 -0 -1 -0 1 2 -0
2 2 -3 -2 1 -0 -2 -1 -3 -1 -1 -3 3 -3 -1 -2 -0 0 -0 -0 1 -1
2 0 -1 -0 0 -1 -3 -2 -1 0 -1 -3 -1 -5 -3 -2 -1 -2 -2 2 1 0
1 -1 -0 -1 -1 -3 0 1 1 -2 -2 -1 -1 0 -1 -0 -1 -2 -0 0 2 3
Height
3092 3086 3081 3075 3070 3064 3058 3052 3044 3037 3030 3023 3015 3009 3005 3001 2997 2993 2989 2988 2985 2983
3082 3077 3072 3065 3059 3052 3044 3037 3029 3022 3015 3008 3003 2998 2995 2991 2988 2985 2980 2977 2975 2974
3072 3065 3058 3052 3045 3037 3028 3021 3014 3009 3004 2999 2995 2991 2987 2983 2979 2976 2973 2970 2968 2965
3061 3054 3047 3039 3031 3023 3015 3009 3004 2999 2995 2990 2986 2983 2978 2974 2971 2967 2964 2961 2959 2956
3050 3042 3034 3027 3019 3011 3005 2999 2994 2990 2986 2981 2977 2973 2968 2965 2962 2960 2957 2953 2951 2949
3039 3032 3024 3016 3008 3002 2996 2989 2984 2980 2976 2972 2968 2964 2960 2956 2952 2949 2946 2943 2941 2939
3028 3020 3013 3006 2998 2992 2988 2982 2977 2972 2968 2963 2959 2954 2950 2946 2942 2939 2935 2932 2930 2927
3018 3010 3003 2997 2991 2984 2979 2973 2968 2963 2958 2953 2949 2944 2941 2938 2933 2928 2925 2921 2919 2916
3009 3001 2994 2989 2983 2977 2972 2966 2961 2956 2950 2946 2941 2935 2931 2927 2923 2919 2915 2911 2909 2906
3000 2993 2987 2982 2976 2971 2965 2959 2954 2948 2942 2936 2931 2924 2921 2916 2912 2907 2904 2901 2897 2894
2992 2986 2980 2975 2969 2963 2958 2952 2946 2939 2933 2927 2922 2915 2911 2905 2900 2896 2893 2889 2886 2882
2985 2979 2973 2968 2962 2956 2951 2944 2938 2931 2925 2919 2913 2906 2900 2894 2890 2885 2882 2879 2876 2872
2979 2973 2968 2962 2957 2951 2944 2937 2930 2924 2918 2911 2905 2897 2890 2884 2879 2875 2871 2869 2866 2863
2972 2967 2962 2957 2951 2944 2937 2930 2924 2918 2910 2902 2895 2888 2881 2875 2870 2866 2862 2859 2857 2854